Regional Weather Roundup
Issued by NWS

Home | Current Version | Previous Version | Graphics & Text | Print | Product List | Glossary On
Versions: 1 2 3 4 5 6 7 8 9 10 11 12 13 14 15 16 17 18 19 20 21 22 23 24 25 26 27 28 29 30 31 32 33 34 35 36 37 38 39 40 41 42 43 44 45 46 47 48 49 50
000
ASUS44 KMEG 260910
RWRTN
TENNESSEE HOURLY STATE WEATHER ROUNDUP
NATIONAL WEATHER SERVICE MEMPHIS TN
300 AM CST SUN FEB 26 2017

TNZ002-004-019-021-049-052-054-088>092-261000-
WEST TENNESSEE

CITY           SKY/WX    TMP DP  RH WIND       PRES   REMARKS
MEMPHIS INTL   PTCLDY    33  23  66 SW3       30.16S
NWS MEMPHIS      N/A     31 N/A N/A MISG        N/A
JACKSON        CLEAR     25  23  92 CALM      30.17S
UNION CITY     CLEAR     27  25  93 CALM      30.16F
PARIS          CLEAR     21  18  86 CALM      30.17R
HUNTINGDON     CLEAR     25  23  93 CALM      30.16F
$$

TNZ008-025-027-028-033-062-065-066-261000-
NORTH MIDDLE TENNESSEE

CITY           SKY/WX    TMP DP  RH WIND       PRES   REMARKS
NASHVILLE      CLEAR     30  21  69 CALM      30.18R
PORTLAND       CLEAR     25  23  93 CALM      30.17R
CLARKSVILLE    CLEAR     28  20  71 CALM      30.18R
SMYRNA         CLEAR     28  23  81 CALM      30.19R
COOKEVILLE     CLEAR     23  21  93 CALM      30.14S
GALLATIN       CLEAR     27  21  80 CALM      30.21R
CROSSVILLE     CLEAR     26  18  71 CALM      30.11R
$$

TNZ061-075-076-078-094-096-097-261000-
SOUTH MIDDLE TENNESSEE

CITY           SKY/WX    TMP DP  RH WIND       PRES   REMARKS
FAYETTEVILLE   CLEAR     30  21  69 CALM      30.15R
TULLAHOMA      CLEAR     25  19  80 CALM      30.15R
WINCHESTER     CLEAR     27  23  86 CALM      30.16R
MCMINNVILLE    CLEAR     27  23  86 CALM      30.15R
COLUMBIA       CLEAR     27  27 100 CALM      30.15R
SHELBYVILLE    CLEAR     27  25  93 CALM      30.18R
$$

TNZ017-018-042-046-047-261000-
NORTHEAST TENNESSEE

CITY           SKY/WX    TMP DP  RH WIND       PRES   REMARKS
TRI CITIES     CLEAR     28  18  66 SW3       30.09S
ELIZABETHTON   CLEAR     28  19  69 W3        30.09R
$$

TNZ012-013-036-069-073-074-261000-
CENTRAL EAST TENNESSEE

CITY           SKY/WX    TMP DP  RH WIND       PRES   REMARKS
KNOXVILLE      CLEAR     33  21  61 CALM      30.13R
OAK RIDGE      CLEAR     30  23  75 CALM      30.15S
GATLINBURG     CLEAR     27  21  80 CALM      30.13S
MORRISTOWN     CLEAR     28  21  74 SW5       30.11R WCI  23
JACKSBORO      CLEAR     27  23  86 CALM      30.16S
$$

TNZ083-085-099-261000-
SOUTHEAST TENNESSEE

CITY           SKY/WX    TMP DP  RH WIND       PRES   REMARKS
CHATTANOOGA    CLEAR     32  24  72 NW6       30.15R WCI  26
$$

SKY/WX REPORTED AS FAIR MEANS FEW OR NO CLOUDS BELOW
12 THOUSAND FEET.





USA.gov is the U.S. government's official web portal to all federal, state and local government web resources and services.